Wind_Speed
22 22 22 21 21 21 20 20 20 20 20 20 19 19 19 19 19 19 19 19 19 19 19 19 19 19 18 18 18 18 18 17 18 17 17 17 18 18 19 19 19 19 19 20 20 20 20 19 19 19 19 19 19 19 19 19 19 19 18 18 19 18 18 17 17 17 16 16 15 14 15 16 15 15 16 17 16 17 17 18 16 15 16 15 15 15 15 15
25 25 25 24 24 24 23 23 23 23 23 23 22 22 22 22 22 22 22 22 22 22 22 22 22 22 22 22 22 22 22 21 22 22 21 20 21 21 21 21 21 22 22 22 22 22 22 22 22 22 21 21 21 21 21 21 21 21 21 21 21 20 20 20 19 20 19 18 18 17 16 17 17 16 16 18 18 18 18 17 16 17 18 16 15 16 15 15
29 28 28 28 27 27 27 26 26 26 26 26 25 25 25 25 25 25 25 25 25 25 25 25 25 25 25 25 25 25 25 25 25 26 25 24 25 24 24 24 24 25 25 25 25 25 25 24 24 24 24 24 24 24 24 23 23 23 23 23 24 23 22 23 22 22 22 22 21 20 18 17 19 18 17 18 18 20 20 17 16 18 19 18 17 17 16 16
31 31 31 31 30 30 30 30 29 29 29 28 28 28 28 28 28 28 28 28 28 28 28 28 28 28 28 29 29 28 28 28 28 29 29 28 28 28 28 27 28 28 28 28 28 28 28 27 27 27 27 27 27 27 26 26 26 25 25 26 27 27 25 25 25 24 24 25 23 23 22 20 20 19 19 20 19 22 23 18 17 19 20 19 18 18 17 17
33 33 33 33 33 33 32 32 32 32 32 31 31 31 31 31 30 31 31 31 31 31 31 31 31 31 31 31 31 31 31 31 31 32 32 31 31 31 30 30 30 30 30 30 30 30 31 30 30 30 30 31 30 30 30 29 29 28 28 28 28 29 27 27 28 27 26 27 26 26 24 23 23 22 21 21 20 23 25 21 19 20 21 20 19 19 18 19
34 34 34 34 34 34 34 34 34 34 34 34 34 33 33 33 33 33 33 33 33 33 34 34 34 34 34 33 33 33 33 32 33 34 33 33 33 33 32 32 32 32 32 32 32 32 32 33 33 33 33 33 34 33 33 33 33 31 30 31 31 31 30 29 31 29 28 29 29 29 27 25 26 25 23 23 22 25 26 23 21 21 21 20 19 19 20 20
33 33 33 33 33 33 34 34 34 34 34 34 34 34 34 34 34 34 34 35 35 35 35 35 36 36 36 35 35 34 33 35 36 35 34 35 35 35 34 34 34 34 34 34 34 34 34 35 35 36 35 35 36 35 35 35 35 34 33 34 34 33 33 32 33 32 31 31 31 32 29 27 28 28 24 23 24 27 27 25 24 23 23 22 20 20 20 21
32 32 32 32 32 32 33 33 33 33 33 33 33 34 34 34 34 34 34 35 35 35 35 36 36 36 37 36 36 34 34 36 38 36 36 36 36 36 35 35 35 35 35 35 35 36 36 36 37 37 36 37 37 37 37 37 36 36 35 36 36 35 35 35 35 35 35 34 35 35 32 29 31 31 25 21 27 30 29 27 26 26 25 24 23 22 22 23
32 32 32 31 32 32 32 32 32 32 32 32 32 32 33 33 33 33 33 33 34 34 34 35 35 36 36 36 35 33 33 36 37 37 36 36 36 36 36 36 36 36 36 36 36 37 37 37 38 38 38 37 38 37 39 39 38 38 38 38 37 37 36 36 36 36 37 37 37 38 35 33 34 35 26 21 29 32 30 29 29 29 27 26 26 25 26 26
32 32 32 32 32 32 32 32 32 32 32 32 32 32 33 33 33 33 33 33 33 34 34 34 35 35 35 35 33 30 33 35 35 35 35 35 35 35 35 35 35 35 36 36 36 37 37 38 38 39 39 38 38 37 39 39 39 39 40 39 38 38 37 37 37 37 40 39 38 39 38 35 36 37 29 25 31 32 32 32 31 31 30 30 29 29 29 28
33 33 34 33 34 34 34 34 34 34 34 34 34 34 34 34 34 34 34 34 34 35 35 35 36 36 35 35 32 30 33 35 33 34 34 34 34 33 33 33 34 34 35 35 35 37 38 38 39 40 40 39 38 37 38 39 39 40 41 40 38 39 38 36 38 40 41 41 39 41 40 37 36 37 32 30 34 33 32 33 33 33 32 32 32 32 32 31
36 36 36 36 36 36 36 36 36 36 36 36 36 37 37 36 36 36 36 36 36 36 37 37 37 38 38 35 32 32 34 34 34 34 34 34 34 33 32 32 32 33 33 34 34 35 37 38 39 39 40 40 38 37 38 38 40 40 40 41 37 38 37 34 38 42 41 41 40 42 43 38 35 36 34 34 36 36 34 33 34 35 34 34 34 35 35 33
38 38 38 38 38 38 38 38 38 38 37 38 38 39 39 38 38 38 38 38 37 37 37 38 38 38 39 35 32 34 35 35 36 36 36 37 35 34 33 33 32 32 33 33 34 34 36 38 39 39 39 39 37 37 38 37 39 38 39 41 37 37 36 32 37 41 41 42 40 42 46 39 34 35 35 36 38 39 37 34 35 36 35 35 36 37 37 36
38 39 38 39 38 38 39 39 39 39 39 39 39 40 40 40 40 39 39 39 38 38 38 38 38 39 40 35 32 35 36 36 37 37 38 38 37 35 34 34 34 34 34 35 35 35 36 37 39 39 38 37 36 36 37 37 37 37 39 39 37 40 39 32 35 38 39 41 40 42 47 40 33 33 35 37 39 40 40 37 36 35 35 36 37 37 38 38
39 38 38 38 37 37 37 38 38 39 40 40 41 42 41 41 41 40 41 40 40 40 39 40 40 42 42 36 32 35 36 36 38 39 39 39 37 36 35 35 36 36 36 36 37 37 37 38 39 39 38 36 35 36 37 37 36 35 38 38 36 42 42 34 32 34 37 40 40 41 46 41 32 31 33 36 38 39 40 38 37 36 34 36 37 37 38 39
39 39 39 38 38 37 37 38 39 40 40 41 42 43 43 43 42 42 42 41 41 41 41 43 42 44 44 37 33 35 35 36 38 39 39 39 37 36 36 36 37 37 37 38 38 38 38 40 41 40 39 36 34 36 39 39 35 32 36 39 39 42 44 37 31 32 35 38 39 41 45 41 31 29 32 34 36 37 38 37 36 36 34 33 35 37 38 38
41 41 40 40 40 40 40 41 42 43 43 43 43 43 44 45 44 44 43 43 43 42 43 45 44 45 45 39 37 36 35 37 38 38 38 37 37 36 37 37 38 38 39 40 39 39 40 42 43 43 40 35 33 36 40 40 34 32 37 42 43 42 43 40 34 34 36 38 40 41 44 39 31 30 31 30 33 35 35 35 34 34 33 32 32 34 35 36
43 43 43 43 43 43 44 44 45 46 46 45 45 45 45 46 45 46 45 45 45 44 45 46 46 47 45 41 41 38 37 38 38 38 37 37 37 36 37 37 38 39 41 41 41 41 42 43 45 45 41 34 33 37 41 40 37 38 41 44 46 44 43 41 37 39 40 41 43 44 45 41 34 33 32 30 31 32 33 32 32 31 32 32 32 32 32 34
45 45 45 45 46 46 47 47 48 47 46 46 47 47 47 47 47 47 47 47 46 46 48 48 48 49 47 44 43 42 40 40 40 39 38 38 38 38 37 37 37 38 40 40 41 43 45 46 49 48 40 34 34 38 42 42 41 43 44 45 47 46 45 40 38 41 43 46 47 46 47 46 39 35 33 32 32 32 31 31 31 31 31 31 32 32 32 33
47 48 48 49 49 49 49 49 48 47 46 46 46 47 48 49 49 49 49 49 48 47 49 50 50 50 49 47 46 44 43 42 41 40 39 39 40 39 39 38 39 39 38 38 41 44 45 48 51 47 39 35 38 41 44 45 46 47 47 47 48 48 47 41 39 41 43 49 51 49 50 49 43 36 33 33 33 32 29 30 32 31 30 30 31 32 33 34
49 50 50 51 51 50 50 49 47 46 46 45 45 46 47 49 50 51 51 51 50 49 49 50 52 51 49 48 48 46 45 44 42 40 40 41 41 41 39 39 41 40 38 39 42 43 45 49 48 44 39 39 42 43 45 47 48 49 49 49 50 51 49 44 42 42 44 51 53 51 53 52 45 38 33 33 33 31 28 29 29 28 28 28 29 31 33 35
51 51 52 52 52 51 49 48 47 46 46 46 46 46 47 48 49 50 52 52 51 50 51 51 51 52 50 50 48 46 46 45 41 41 41 41 41 41 40 41 42 41 41 42 42 42 46 47 43 40 41 42 44 44 46 48 50 52 51 52 54 52 50 48 45 43 47 53 54 53 55 54 48 40 34 31 32 31 28 27 24 23 25 26 29 31 32 35
53 53 53 52 51 49 47 46 46 46 47 47 46 46 47 47 48 49 51 53 51 49 51 51 51 53 52 50 49 47 47 44 42 42 42 42 41 41 42 42 43 43 43 42 41 44 49 46 40 40 42 43 44 45 46 49 52 54 53 54 56 52 51 53 49 46 50 55 56 55 58 57 51 44 35 30 31 31 27 26 21 20 23 26 30 32 33 33
52 51 51 50 49 48 46 46 47 47 47 47 47 47 47 47 48 49 51 53 52 49 47 49 51 53 51 50 50 49 46 44 44 44 42 41 41 42 43 42 44 46 44 42 43 48 50 45 42 44 43 42 43 44 45 49 52 52 53 54 55 53 52 55 53 51 55 58 56 56 61 60 52 46 38 31 32 31 27 26 22 21 24 26 28 30 32 33
50 50 49 49 49 49 48 48 48 47 47 47 47 47 47 47 47 49 50 52 54 51 46 47 50 50 48 48 48 46 45 44 43 42 40 41 41 42 43 44 47 47 44 42 46 51 50 43 42 45 45 43 43 44 44 45 48 51 52 52 52 53 54 54 54 55 58 61 58 57 64 63 54 49 42 35 35 32 29 30 26 23 26 28 29 29 30 32
51 51 50 50 51 51 50 50 50 49 48 47 47 47 47 47 47 48 49 52 56 53 49 49 48 46 44 43 43 43 44 43 41 40 40 40 40 41 44 46 47 46 44 43 47 53 50 43 43 45 45 45 46 46 43 41 46 50 50 49 49 52 53 54 54 56 59 62 61 61 65 65 59 53 46 42 40 35 31 31 27 26 27 29 32 31 30 30
53 52 52 52 52 52 52 51 51 51 50 50 49 48 48 47 47 47 48 52 58 56 53 52 48 45 43 41 41 42 43 42 40 40 40 40 40 41 44 45 45 45 45 46 50 52 48 45 46 45 45 47 48 46 42 41 47 51 49 48 49 50 51 53 54 57 59 61 63 65 67 67 61 53 48 47 45 40 34 31 29 28 29 29 31 32 33 32
55 54 53 53 53 53 52 52 51 51 51 51 51 50 49 48 47 47 47 54 60 59 55 52 49 47 47 45 43 41 41 40 40 40 39 40 41 42 44 44 44 44 45 48 52 51 48 47 48 48 49 49 46 44 43 43 48 50 50 50 50 50 50 51 53 55 58 59 62 65 65 66 61 53 52 52 49 43 36 32 32 31 31 30 30 33 36 36
57 55 54 53 52 53 53 53 52 52 52 52 51 51 50 50 49 47 48 56 62 59 54 50 49 49 49 48 46 43 41 39 39 39 39 39 41 42 43 43 43 45 46 49 52 50 49 50 51 51 51 50 46 45 45 46 48 49 49 50 51 52 51 52 53 54 57 59 61 63 62 63 60 54 54 55 51 47 41 36 36 35 35 33 31 32 35 37
57 55 54 53 53 54 54 54 54 54 54 53 52 52 52 52 51 50 54 60 60 57 53 52 51 51 49 48 49 47 44 42 40 40 40 40 40 41 44 44 45 46 46 49 51 50 49 51 52 53 52 50 48 48 48 48 48 48 49 51 52 53 53 54 56 56 58 61 60 60 59 60 59 55 54 55 53 51 47 42 40 39 38 33 29 29 32 35
54 54 54 53 53 53 52 53 56 56 55 55 54 54 54 54 53 55 58 58 56 55 54 54 53 51 49 48 48 48 47 46 44 43 42 41 41 42 44 45 46 47 48 50 50 49 50 52 53 52 52 51 50 50 50 49 48 48 49 51 51 52 54 57 58 58 61 61 59 57 58 58 58 57 57 58 57 54 50 46 43 43 41 33 27 27 28 32
51 52 52 51 51 50 48 49 52 54 55 55 55 55 56 57 57 57 57 55 56 55 53 53 53 50 49 48 47 47 48 48 47 45 43 42 43 44 45 47 48 49 50 50 50 50 51 51 52 53 53 51 50 50 50 49 47 48 50 51 50 53 56 59 60 60 60 60 58 58 58 59 58 57 57 57 56 55 54 53 49 47 48 39 29 26 27 28
52 52 52 51 50 49 48 48 47 48 50 51 53 54 55 58 57 55 55 55 56 55 51 51 52 50 50 48 48 49 50 50 50 49 47 47 47 46 47 48 49 50 50 49 49 51 51 49 50 53 53 51 51 50 49 48 48 50 51 51 51 54 57 58 59 60 60 58 58 58 60 62 60 58 58 56 55 56 55 56 53 50 53 49 35 27 27 28
56 55 53 53 53 52 51 51 49 47 47 48 50 51 53 55 53 50 52 52 51 52 52 52 53 53 53 52 51 50 51 52 52 53 53 53 52 51 50 50 50 50 51 50 50 50 51 50 49 51 51 51 52 50 48 49 51 53 55 55 56 57 58 58 58 60 62 60 59 60 62 63 61 60 61 59 59 58 55 55 54 53 55 54 45 34 28 28
56 57 57 57 57 56 56 56 54 52 53 53 53 54 54 51 48 48 50 49 49 51 52 53 53 55 55 54 53 52 53 56 56 57 57 57 57 56 55 56 55 54 54 55 55 54 55 55 53 52 51 50 52 52 52 54 56 56 58 60 60 58 57 58 60 60 62 64 63 63 65 64 62 61 61 60 60 59 58 56 56 57 57 56 51 42 31 26
54 55 56 58 58 59 59 59 58 57 58 59 60 61 59 55 52 52 53 53 53 53 53 53 54 56 58 58 58 58 60 62 62 62 63 62 62 61 61 62 61 60 61 62 62 61 61 60 56 55 55 53 53 54 55 57 58 58 60 62 62 61 61 63 64 62 62 65 65 64 66 65 63 62 61 60 58 57 58 58 58 61 61 58 52 42 32 28
58 57 56 56 57 59 60 60 59 59 59 60 64 66 64 61 59 59 59 59 59 59 59 59 58 59 63 65 66 66 65 65 66 67 67 67 67 66 65 65 64 64 63 63 62 61 62 62 58 57 59 57 56 58 59 60 63 63 62 60 59 61 62 63 65 64 62 66 67 65 66 67 65 65 64 62 61 60 60 59 60 62 62 60 54 42 34 32
67 65 62 60 60 62 63 62 62 62 62 64 67 69 68 66 64 64 64 64 64 64 65 66 66 67 69 70 71 70 69 70 71 70 69 69 70 70 68 67 67 66 64 64 65 64 64 65 62 59 61 62 61 62 64 65 66 66 63 59 57 58 59 60 62 64 63 67 69 67 67 68 67 66 64 63 63 64 64 62 62 63 62 61 58 49 39 34
72 73 72 70 69 69 69 69 68 68 70 72 72 73 71 69 68 67 66 66 67 68 69 69 69 70 71 72 72 71 71 72 72 71 70 71 73 73 71 71 71 72 71 70 70 70 69 69 67 63 63 64 63 64 66 66 66 66 65 62 61 60 61 62 64 65 66 69 72 71 70 69 65 62 62 63 64 66 67 66 65 65 63 59 57 54 49 41
73 75 76 76 75 74 73 74 73 73 76 77 77 76 75 74 72 70 69 68 68 69 70 70 69 69 70 70 71 71 70 70 70 70 69 71 73 73 73 74 75 77 77 75 73 72 71 72 72 69 67 66 65 65 66 65 66 67 67 67 67 66 67 69 71 70 70 72 74 74 75 70 62 60 60 62 64 67 68 68 66 64 63 60 55 55 56 51
72 74 74 74 75 75 75 76 77 78 80 81 80 80 80 79 78 76 75 75 74 74 75 74 72 72 72 72 71 70 70 71 70 69 68 69 70 69 69 70 70 72 74 73 72 72 72 72 72 73 74 73 71 68 67 67 68 69 70 70 70 71 72 74 76 74 72 73 74 74 78 73 61 57 59 59 61 63 63 64 63 61 61 61 56 53 57 59
72 73 72 72 75 76 76 77 78 80 81 82 82 81 81 81 80 80 80 80 80 80 79 78 77 76 75 75 74 72 72 73 72 70 69 68 67 66 64 63 63 65 68 69 71 73 74 73 75 79 81 79 75 71 70 69 68 69 71 72 71 72 74 76 78 76 71 71 71 71 76 72 57 49 51 53 56 58 58 58 60 59 59 60 58 55 57 62
73 73 73 73 75 77 78 79 80 81 82 81 80 79 80 81 81 80 80 81 82 83 82 82 81 80 79 78 77 76 75 76 75 72 71 71 69 66 64 64 64 66 68 69 69 71 72 75 78 81 81 79 77 74 73 73 72 72 72 69 67 67 68 71 72 69 66 66 67 68 74 73 61 53 52 54 57 61 62 60 60 60 58 57 58 58 59 61
73 74 74 74 75 78 80 81 81 82 82 80 79 79 80 81 81 81 81 81 81 82 83 83 83 83 82 81 80 80 79 81 82 80 78 78 76 73 72 73 72 70 70 68 67 67 68 69 70 72 73 72 69 68 68 67 65 64 62 59 58 58 59 60 59 57 60 61 59 63 67 64 59 56 56 57 56 58 61 60 59 58 56 57 59 61 63 66
74 75 75 76 77 79 80 80 81 82 82 82 82 82 81 81 82 80 79 80 80 81 83 83 83 82 82 82 83 84 84 85 86 86 85 85 83 81 81 81 79 78 76 74 72 71 69 65 61 61 64 64 62 61 59 55 52 52 52 52 52 52 53 53 52 56 62 60 58 62 64 59 53 50 51 53 51 49 50 51 52 54 57 61 65 66 68 70
75 76 76 76 79 80 81 80 80 82 83 83 83 84 83 83 82 80 80 80 80 81 83 83 83 83 84 85 85 86 86 85 86 88 88 88 88 86 85 85 83 81 78 76 75 74 74 73 67 63 64 65 65 63 58 56 57 57 56 54 53 54 55 58 63 68 68 67 69 68 64 62 57 48 45 49 50 50 49 48 50 56 59 63 66 68 69 69
75 75 75 76 79 80 81 81 81 82 83 82 84 85 84 83 82 81 82 82 81 80 82 84 84 84 85 86 86 87 87 86 86 88 89 90 89 88 88 88 86 83 77 73 72 73 75 77 73 71 72 71 70 68 63 63 67 66 63 62 61 60 62 67 73 74 71 79 83 72 65 69 67 56 51 50 50 51 49 47 50 54 55 56 59 62 65 65
75 74 74 76 78 79 79 80 80 81 81 81 83 84 83 83 84 84 83 83 81 80 82 84 84 83 83 84 85 86 87 87 89 90 91 91 90 89 89 89 89 87 83 81 79 79 82 85 82 80 81 80 78 78 76 77 80 80 79 78 75 74 76 79 82 81 83 91 92 81 78 84 82 76 72 65 58 58 59 60 63 60 56 55 57 58 60 60
74 73 73 75 76 76 76 77 78 79 80 80 81 81 81 83 84 84 83 82 82 82 83 84 84 82 81 80 80 82 83 85 87 87 87 87 87 89 90 91 90 88 88 89 90 90 94 97 95 93 95 94 92 91 91 92 93 94 94 94 93 93 95 96 96 95 96 99 98 93 92 93 90 89 89 83 77 78 80 81 80 75 71 68 67 68 68 68
73 73 73 74 75 74 74 74 75 76 77 78 80 80 80 80 80 80 79 80 80 81 82 82 80 78 77 76 76 78 77 77 78 80 81 82 83 85 88 90 90 89 89 91 93 95 98 100 101 101 103 104 103 101 100 99 98 98 99 98 98 100 101 103 103 101 100 100 99 96 93 93 93 91 89 87 87 87 88 88 87 85 82 79 76 76 76 76
73 73 74 74 74 73 72 73 74 75 76 76 78 79 78 77 78 78 79 79 78 79 79 78 78 78 77 77 77 78 77 76 75 76 76 77 79 80 81 83 84 84 85 87 89 92 95 97 100 100 101 104 106 106 104 102 99 98 99 100 100 102 102 102 101 99 97 96 95 93 92 94 93 88 84 84 83 82 81 83 85 87 86 83 79 76 72 69
73 73 74 74 75 74 73 73 73 74 76 75 75 77 77 77 78 79 80 80 77 77 78 78 79 80 80 79 79 80 81 80 78 76 74 74 74 73 72 73 75 76 77 79 81 83 86 88 90 90 92 95 98 99 97 93 88 89 94 97 96 94 92 90 91 93 94 93 92 91 93 93 88 83 80 78 77 76 75 76 77 78 76 73 69 67 64 63
Wind_Direction
258 259 260 261 262 264 265 267 269 270 272 274 275 277 278 280 281 283 285 287 288 289 289 290 291 291 291 291 291 290 290 288 286 284 284 286 287 289 289 291 292 293 293 294 295 296 297 298 298 298 298 297 298 299 300 302 304 306 308 308 309 310 310 313 315 313 312 313 316 318 319 319 320 320 318 319 319 317 314 318 328 318 311 316 314 308 306 308
260 261 262 262 263 264 264 266 267 268 269 271 273 274 275 277 278 280 282 283 285 286 287 288 288 289 290 290 291 291 291 291 290 288 288 288 287 288 288 288 288 288 288 289 290 291 292 293 294 295 295 295 296 296 296 297 299 301 303 305 305 306 307 309 311 310 311 311 313 316 317 317 316 319 318 316 318 315 311 319 328 317 313 319 314 309 308 309
262 263 263 264 265 265 266 267 267 268 269 269 270 271 273 274 275 277 278 280 281 282 283 285 286 287 287 288 288 289 290 291 290 289 290 290 290 290 289 289 289 288 287 287 287 288 288 289 290 291 293 294 294 294 293 294 295 297 299 300 299 301 303 305 306 307 308 309 312 312 311 311 310 313 314 313 316 311 308 319 324 314 313 318 314 309 309 308
264 265 265 266 267 267 268 268 269 270 270 271 271 271 272 272 273 274 276 277 278 279 280 281 283 284 285 286 287 287 288 289 289 289 290 290 290 289 289 289 289 289 288 288 288 288 288 287 287 287 289 290 290 291 291 292 293 294 295 296 296 296 299 301 301 302 303 303 306 305 306 307 304 308 308 308 311 304 303 314 317 311 312 315 313 308 308 307
266 267 267 268 269 269 270 271 271 272 273 273 273 274 273 273 274 274 275 275 276 277 278 279 280 281 282 283 284 286 287 288 288 288 288 289 289 288 288 288 289 289 288 289 289 289 289 288 287 287 287 287 287 288 290 291 291 292 293 293 293 294 297 298 296 298 299 299 300 298 300 301 301 303 302 306 306 298 300 308 308 307 308 311 310 307 308 307
267 268 268 269 270 271 271 272 273 273 274 275 275 275 275 275 275 275 275 275 276 276 277 278 279 280 280 281 282 284 285 286 285 286 287 288 288 288 288 289 289 289 289 289 289 290 290 289 289 288 288 288 287 287 289 290 291 292 292 291 291 292 293 293 292 295 295 296 295 294 296 297 296 296 298 305 301 294 298 302 303 302 302 304 303 301 303 303
267 268 269 270 271 272 273 273 274 274 275 276 276 276 277 277 277 277 276 276 276 276 277 277 278 278 279 280 281 282 284 284 284 285 286 287 287 288 288 288 289 289 290 290 290 290 290 290 290 289 289 289 289 289 289 288 290 291 291 290 291 291 291 290 289 291 291 292 291 291 294 295 293 291 296 302 296 291 295 299 299 298 297 298 295 293 295 297
267 268 269 270 271 272 272 273 274 275 275 276 277 277 278 278 278 278 279 279 279 278 278 278 278 278 279 279 280 282 283 282 283 283 284 285 286 287 287 288 288 289 289 290 290 290 290 290 289 289 289 289 289 290 289 289 289 289 289 289 290 291 291 290 290 290 290 290 290 290 292 293 291 291 297 298 289 289 293 295 295 295 296 295 293 291 291 292
264 265 266 267 268 269 270 271 272 273 274 275 276 276 277 277 278 279 279 280 280 280 280 280 281 280 281 281 281 284 283 281 282 284 284 284 284 285 286 287 288 289 289 289 289 290 290 289 289 289 289 289 289 290 289 289 290 289 288 289 290 290 290 291 292 291 288 287 288 290 290 290 289 290 296 293 286 289 292 292 291 291 292 291 291 291 290 290
263 264 265 265 266 267 267 268 269 270 271 273 274 274 275 275 276 277 278 279 280 281 281 281 282 282 282 282 284 286 283 282 284 285 285 284 284 284 285 286 287 288 288 288 289 289 289 288 289 289 288 288 289 289 289 290 291 290 290 291 291 290 290 292 292 290 287 287 287 287 286 287 287 289 292 287 284 288 289 290 289 288 288 288 288 288 287 288
265 266 266 267 267 267 268 268 268 269 270 271 271 272 272 273 275 276 276 277 278 279 280 281 281 282 282 283 286 286 282 284 285 285 285 284 284 284 285 286 288 288 288 289 289 289 288 288 288 288 288 287 288 288 288 290 291 291 292 292 291 291 291 293 292 289 288 289 288 286 284 284 285 287 288 285 284 285 285 286 286 286 287 287 287 287 286 285
265 266 267 267 268 268 269 269 270 270 270 270 270 270 271 271 272 274 275 275 276 277 278 279 280 281 281 283 287 285 283 286 286 285 285 284 284 285 286 287 289 289 290 290 289 289 288 288 288 287 287 288 288 288 288 290 290 291 292 291 291 292 292 294 290 288 290 290 289 287 284 283 284 285 285 284 283 283 281 281 282 284 285 286 287 286 285 284
266 266 267 267 268 268 269 270 270 271 271 272 272 271 271 271 271 272 273 274 274 275 275 277 278 278 279 283 287 286 285 286 286 286 285 285 286 287 289 290 290 290 291 291 290 289 289 289 289 288 287 288 289 289 289 291 290 292 291 291 295 292 289 290 287 289 292 291 289 286 283 283 283 283 283 282 281 281 280 279 279 281 283 283 284 284 284 283
266 266 267 268 268 269 270 271 271 272 272 272 273 272 272 272 271 271 272 272 273 273 274 274 276 277 278 281 284 284 284 285 285 285 284 285 287 289 290 291 290 291 292 291 290 290 290 290 290 289 288 288 289 290 291 291 290 293 293 294 297 291 288 289 289 293 294 291 289 285 283 283 281 280 280 279 279 280 282 281 280 280 280 280 281 281 282 282
266 266 266 267 268 270 271 273 274 274 274 273 273 273 273 273 272 272 271 272 273 273 274 274 275 276 277 279 282 281 282 282 283 283 283 285 287 289 290 289 290 291 291 290 290 291 291 290 289 288 287 288 291 292 292 290 292 296 295 294 291 288 289 292 293 296 295 293 290 285 283 283 282 280 277 276 277 279 282 283 283 282 280 279 280 279 279 279
265 265 265 266 267 269 271 274 275 275 275 274 274 273 273 273 272 272 271 272 271 272 273 274 275 276 277 279 279 279 281 281 281 282 284 285 287 288 288 288 289 289 289 288 289 289 289 288 287 286 286 288 292 294 292 291 294 297 293 288 286 287 291 294 296 296 294 294 292 287 284 283 284 279 273 273 277 279 281 282 283 284 282 281 279 278 277 278
264 264 264 265 267 269 272 274 276 275 274 273 272 272 272 272 271 271 271 271 270 271 272 273 275 275 277 279 278 278 280 280 281 283 284 285 287 289 289 288 288 287 286 286 287 287 287 286 285 284 284 288 294 294 292 291 295 292 285 285 286 288 291 294 298 296 293 293 292 290 288 288 287 281 276 275 276 278 280 281 283 285 285 284 280 278 278 278
263 263 264 266 268 270 273 276 277 275 273 270 269 269 270 271 271 270 270 269 270 270 271 272 273 273 275 277 277 278 277 278 280 281 283 287 289 289 289 289 288 287 285 284 285 285 284 283 282 280 283 291 296 292 288 289 290 285 283 285 286 288 289 293 298 298 296 294 292 292 294 295 292 287 285 283 280 279 280 283 284 284 284 285 285 282 280 278
263 263 265 267 269 272 274 277 277 275 273 271 268 267 267 268 269 269 269 268 268 269 270 271 271 272 274 274 275 276 276 277 278 279 282 285 287 288 289 289 288 286 285 286 285 282 280 279 277 278 286 294 293 286 284 285 285 283 284 285 286 289 289 293 299 298 297 294 292 294 295 295 293 292 291 288 285 283 284 286 285 284 284 286 287 286 282 279
263 264 265 267 270 272 275 276 276 275 274 272 270 268 267 267 267 268 268 268 268 268 268 270 270 271 273 274 274 275 276 276 276 279 282 283 284 285 287 288 286 285 286 286 282 279 279 276 276 280 289 292 285 281 282 283 283 283 284 285 287 288 289 294 296 294 294 292 291 293 292 291 292 294 293 290 287 286 288 287 285 286 287 286 285 284 283 281
263 264 266 267 269 271 274 274 273 273 273 273 272 271 270 269 268 267 268 267 267 268 268 269 270 271 272 273 274 274 275 275 277 280 281 281 282 284 286 286 284 284 285 282 280 281 280 277 279 285 288 285 281 281 282 282 283 283 284 285 286 287 290 292 291 291 291 289 289 290 290 289 290 291 292 291 291 291 290 285 284 286 287 286 283 281 281 281
264 265 266 268 269 271 271 271 271 272 273 273 273 272 272 271 270 270 269 268 267 267 268 268 271 273 273 272 273 274 275 276 279 280 279 279 281 283 283 281 281 282 281 279 281 282 280 280 285 288 284 279 278 279 280 281 282 283 284 286 285 287 291 290 290 291 288 286 287 289 288 287 287 287 288 291 292 292 290 286 285 285 283 283 282 280 279 280
264 265 266 267 268 268 268 268 270 272 273 273 273 273 272 272 272 272 271 270 268 266 267 269 270 271 272 273 274 274 275 278 280 278 277 278 280 280 279 278 279 278 277 279 281 280 278 281 287 285 281 279 278 277 277 278 279 281 283 284 285 288 291 289 289 289 286 285 286 288 287 285 285 286 287 290 289 287 288 287 286 283 280 280 281 282 282 283
263 263 264 264 264 264 265 267 269 270 271 272 272 272 272 272 272 272 272 272 271 268 267 268 268 268 270 273 273 275 277 278 277 276 277 277 278 277 277 277 276 274 276 279 279 276 276 281 284 282 282 282 281 279 277 277 277 279 280 281 284 287 287 287 289 288 285 284 285 287 286 283 284 286 287 288 285 283 284 283 283 282 281 279 278 280 284 286
262 262 262 263 263 263 265 267 268 269 269 270 271 271 272 272 272 272 272 272 272 271 269 267 267 268 270 271 274 277 278 277 276 277 278 277 276 276 276 274 273 274 277 277 276 275 275 278 280 280 282 283 282 280 277 277 279 280 278 279 282 283 283 285 286 286 285 284 285 286 284 285 287 286 287 289 283 280 280 278 277 277 276 277 278 279 280 282
261 262 262 263 263 264 265 267 268 268 268 269 270 271 271 272 272 271 272 273 272 272 270 268 267 269 270 273 276 277 276 277 279 279 278 276 274 273 272 272 273 275 277 276 274 273 275 278 278 277 279 279 278 277 278 280 280 279 278 279 280 280 281 282 282 283 283 284 285 284 283 285 289 288 290 290 285 279 277 276 276 273 273 276 279 280 279 278
262 262 263 263 264 266 267 268 268 267 268 268 269 270 270 270 271 271 272 272 271 271 270 270 271 273 273 273 273 274 276 279 280 278 276 275 273 272 271 273 274 275 275 274 273 274 277 278 276 276 275 274 274 277 280 280 278 277 280 281 279 278 279 279 280 280 281 282 283 282 283 285 290 294 295 291 287 282 280 280 279 276 275 276 277 280 281 282
262 263 263 264 266 267 268 268 268 266 267 268 268 269 269 269 269 270 271 270 270 270 271 273 277 278 277 276 275 275 275 275 275 275 275 275 274 273 273 274 274 274 273 272 272 275 277 276 275 275 274 273 275 278 278 276 275 277 278 279 279 280 280 280 280 280 280 280 278 279 282 285 291 298 297 292 289 288 288 287 283 279 277 276 278 282 284 284
262 263 264 264 265 267 268 269 268 267 267 267 267 267 268 268 268 268 268 267 269 271 274 277 279 279 279 280 281 280 276 273 272 273 274 274 273 273 273 273 273 273 272 272 273 274 275 275 275 274 273 275 277 277 276 275 276 276 277 278 280 280 281 281 280 279 279 277 276 278 282 286 292 297 293 290 292 293 294 291 287 283 280 280 281 282 282 282
260 262 263 264 266 267 268 269 268 267 267 267 267 267 267 267 267 266 265 266 270 274 278 279 278 278 280 281 282 282 280 277 274 272 272 272 271 271 271 272 273 273 273 273 274 275 275 275 274 274 276 276 275 274 274 274 275 276 277 278 279 279 279 278 277 277 276 276 277 280 284 287 290 292 291 291 293 295 295 293 291 288 285 285 286 281 277 275
260 261 261 263 265 266 268 268 268 267 266 266 266 267 267 268 267 266 266 270 274 276 278 278 279 280 280 279 279 280 281 281 278 276 273 271 269 268 269 271 273 274 274 274 275 275 275 274 275 275 275 274 273 273 273 273 275 276 276 276 276 276 276 275 275 275 275 278 281 282 285 285 284 285 288 292 294 295 296 296 294 292 288 288 288 282 274 271
261 261 262 262 264 265 267 267 268 269 268 268 268 268 268 267 267 267 270 273 274 275 276 277 278 278 278 278 279 280 281 282 282 281 278 274 270 268 270 271 272 274 276 276 276 275 274 275 276 276 274 274 275 274 273 273 274 275 274 274 274 274 273 273 274 275 276 281 284 284 284 282 280 282 286 290 293 296 297 296 295 295 292 289 286 280 275 271
262 263 263 263 263 264 264 264 266 268 269 269 269 269 269 267 268 270 272 271 272 275 277 277 277 277 277 278 278 279 281 281 282 283 281 279 276 272 272 273 273 274 275 276 275 274 274 275 277 277 276 276 276 275 274 275 276 275 274 273 272 272 273 273 275 277 280 282 283 282 280 279 282 286 288 290 292 292 293 294 295 295 292 291 288 283 282 277
263 262 262 263 262 262 261 260 260 261 262 265 266 265 265 268 270 272 272 271 271 272 273 272 273 274 275 275 276 277 279 279 280 280 280 280 279 276 276 277 277 275 275 275 275 275 276 276 276 276 275 274 273 274 275 277 277 277 277 275 273 272 273 274 277 278 279 279 278 276 275 277 283 287 288 290 290 290 291 292 293 292 290 291 291 293 292 280
263 261 260 261 262 262 261 260 259 257 256 259 262 261 259 263 267 269 270 270 269 268 268 267 268 269 270 271 272 274 276 278 278 278 278 278 278 278 278 279 279 278 277 276 276 277 277 276 275 274 273 270 269 271 274 277 277 278 278 276 275 276 277 276 277 276 277 277 275 274 275 277 281 283 285 286 287 290 292 292 291 289 288 289 291 297 296 278
265 263 260 259 260 261 260 260 261 260 257 257 259 259 257 258 261 263 265 267 267 266 266 266 266 267 268 270 271 273 275 276 277 277 277 277 278 278 279 279 279 278 278 278 279 279 278 276 273 271 272 271 270 272 274 276 277 276 275 275 278 280 280 277 276 275 274 273 274 275 276 278 280 282 283 283 285 287 288 288 288 286 286 287 289 295 291 279
269 267 263 261 260 260 260 260 261 261 259 258 258 258 258 258 259 261 262 264 265 266 267 266 266 267 269 271 273 275 275 275 276 276 276 277 277 278 278 279 279 277 277 277 277 276 276 275 273 272 273 273 273 274 275 276 276 276 276 278 279 279 278 276 274 273 271 271 272 273 275 277 278 281 284 286 287 286 284 284 285 285 287 289 290 291 284 277
271 269 267 264 264 263 262 262 262 261 261 260 260 259 260 261 261 261 262 262 263 264 265 266 266 266 267 269 272 273 274 275 276 276 276 276 276 276 277 279 279 278 277 276 275 273 274 274 275 274 274 273 272 274 275 275 277 279 281 280 278 275 275 274 273 272 271 272 273 273 273 273 275 278 283 284 285 285 285 285 285 285 287 289 291 290 282 273
271 269 268 266 266 266 264 263 262 262 262 262 261 261 261 261 261 261 261 262 262 263 263 264 265 266 266 267 268 269 270 272 274 275 276 277 276 276 276 277 279 279 279 279 278 277 277 276 276 274 273 273 272 271 272 275 278 280 280 278 275 273 273 272 272 272 273 274 275 274 272 270 272 276 279 280 281 282 282 283 283 285 287 288 289 290 286 277
269 268 267 266 266 266 265 264 263 263 263 263 264 264 264 264 263 263 263 263 263 264 265 265 265 265 265 265 266 267 268 269 270 272 274 275 276 276 276 277 279 280 281 281 281 282 282 281 281 279 276 274 273 272 272 274 275 276 275 274 274 273 273 272 271 271 272 273 274 274 272 270 271 274 275 276 277 276 277 279 281 284 286 285 286 289 290 284
267 267 266 266 266 266 265 265 264 264 264 265 265 266 266 266 266 266 267 267 267 267 268 267 266 265 265 265 265 266 267 267 267 269 270 272 274 275 274 275 276 277 278 280 283 285 286 286 284 283 281 278 277 277 275 273 273 273 272 272 272 272 272 272 272 271 272 272 273 274 273 271 270 271 273 273 273 273 275 278 280 281 281 281 282 285 289 288
264 265 265 264 265 266 266 265 265 265 265 266 266 267 267 267 267 267 267 268 268 268 268 268 267 266 266 266 266 266 266 266 266 268 270 271 270 269 270 272 274 275 277 279 281 283 283 283 282 283 284 284 283 281 279 278 278 276 275 274 274 274 273 273 272 272 272 271 271 271 271 271 269 269 270 268 269 272 274 274 276 276 277 279 281 283 285 287
263 264 264 263 263 265 266 265 266 266 266 267 267 267 267 267 267 266 266 267 267 268 268 268 267 267 266 267 267 266 266 267 266 266 267 268 266 266 268 272 275 278 280 280 280 279 279 279 279 281 283 283 283 282 282 282 281 279 278 278 277 275 273 270 269 269 269 268 268 269 270 271 271 268 264 263 266 270 270 270 273 274 275 279 282 283 285 288
264 264 264 263 263 263 264 265 266 267 267 268 268 267 267 267 266 266 267 266 266 267 267 267 267 267 267 266 266 266 266 267 266 265 264 264 264 265 267 271 273 276 277 278 277 276 275 275 276 278 278 278 277 276 277 279 279 277 275 272 268 264 262 262 264 266 267 266 266 269 270 272 271 266 261 260 265 269 268 267 271 273 274 278 281 283 285 287
267 266 265 264 263 263 263 265 266 267 268 268 268 267 267 267 267 268 268 267 266 267 267 267 267 267 267 267 267 266 266 267 267 267 266 265 264 264 266 269 272 274 275 276 276 274 271 269 269 271 273 271 269 268 269 269 268 268 265 259 255 255 257 261 266 270 270 269 266 267 270 273 271 268 264 262 264 267 266 267 272 274 276 279 281 283 284 286
269 268 267 267 266 265 264 264 265 267 268 268 268 267 267 268 269 269 268 267 267 268 268 268 268 267 267 267 268 268 267 267 268 268 267 266 265 264 264 267 270 272 274 275 273 270 266 263 260 260 263 263 263 264 263 262 262 263 262 259 258 260 262 266 271 273 275 276 274 271 272 273 272 270 268 267 267 268 268 268 270 273 276 278 280 282 283 284
269 269 269 268 267 267 266 265 265 266 268 269 269 269 268 269 269 269 268 268 268 268 268 268 268 268 268 269 269 270 270 269 268 268 268 268 267 266 265 265 267 269 271 271 269 266 264 262 259 258 259 260 262 263 263 263 265 265 264 264 263 265 266 268 271 273 277 280 279 276 275 277 276 275 272 269 269 269 269 268 268 269 272 275 276 277 279 281
270 269 269 268 268 268 269 268 268 268 268 269 270 270 270 269 269 269 269 269 268 268 268 268 269 270 270 270 270 270 270 269 269 269 270 270 270 269 267 266 266 266 267 267 266 265 266 266 265 264 264 264 266 267 267 268 270 270 270 269 268 268 269 270 271 273 276 279 279 278 278 279 279 279 277 274 272 271 272 274 275 274 274 274 275 277 278 279
270 269 269 269 269 269 270 270 270 270 270 270 270 270 271 270 270 270 270 270 270 269 269 270 270 270 270 269 269 269 269 270 270 270 270 271 271 271 270 268 266 266 266 265 265 266 268 270 270 270 271 270 270 270 271 271 272 273 273 273 273 273 274 274 275 275 277 279 281 282 282 281 280 282 282 280 279 278 278 278 278 279 280 279 279 279 280 280
270 270 269 269 269 270 270 270 270 270 269 270 270 271 272 271 271 270 270 270 271 271 271 271 271 270 269 268 267 267 268 268 268 269 269 269 270 271 271 270 269 267 266 266 266 267 268 270 271 272 274 274 273 273 274 274 275 275 275 275 276 277 276 277 278 279 280 281 282 284 284 284 283 285 286 285 284 283 282 281 281 282 283 283 283 282 281 278
270 270 270 269 269 269 270 269 269 269 269 270 271 272 271 270 269 269 269 269 270 270 270 269 268 268 268 268 267 266 266 266 266 267 268 268 269 270 270 271 271 270 268 268 267 267 268 269 270 272 275 275 274 275 276 277 278 278 276 276 277 278 279 280 281 282 283 284 284 285 285 286 287 289 289 288 287 286 286 285 285 285 285 285 284 282 279 275
271 271 271 271 270 270 270 270 269 268 270 270 270 270 269 269 269 270 270 270 268 268 268 268 268 267 267 266 265 265 265 265 265 266 267 268 269 269 268 269 270 271 272 271 270 269 270 270 271 272 274 276 275 276 277 279 278 276 275 277 279 280 281 282 282 282 282 284 285 286 287 289 290 291 290 289 288 288 288 287 287 287 286 285 281 277 275 272
Height
5887 5887 5887 5888 5888 5888 5888 5888 5888 5889 5889 5889 5889 5889 5890 5890 5890 5890 5890 5890 5890 5890 5890 5890 5890 5890 5890 5890 5890 5890 5890 5889 5889 5889 5888 5888 5888 5887 5887 5887 5887 5886 5886 5885 5885 5884 5884 5883 5882 5882 5882 5881 5881 5880 5879 5879 5878 5877 5877 5876 5875 5874 5873 5872 5872 5871 5871 5870 5869 5869 5868 5867 5866 5866 5865 5864 5864 5863 5862 5861 5861 5861 5860 5860 5860 5858 5857 5856
5885 5885 5886 5886 5886 5886 5886 5887 5887 5887 5887 5887 5887 5887 5888 5888 5888 5888 5888 5888 5888 5888 5888 5888 5888 5888 5888 5888 5888 5888 5888 5888 5887 5887 5887 5887 5886 5886 5886 5886 5885 5885 5884 5884 5883 5883 5882 5882 5881 5880 5880 5879 5879 5878 5877 5877 5877 5876 5875 5874 5873 5873 5872 5871 5870 5869 5869 5868 5868 5867 5867 5866 5865 5865 5864 5863 5863 5861 5861 5861 5860 5859 5858 5859 5858 5857 5856 5855
5883 5884 5884 5884 5884 5884 5884 5885 5885 5885 5885 5885 5885 5885 5886 5886 5886 5886 5886 5886 5886 5886 5886 5886 5886 5886 5886 5886 5886 5886 5886 5885 5885 5884 5885 5885 5884 5884 5884 5884 5883 5883 5882 5882 5882 5881 5881 5880 5880 5879 5878 5877 5877 5876 5875 5875 5875 5874 5874 5873 5871 5871 5871 5869 5869 5868 5867 5866 5866 5865 5865 5865 5864 5864 5863 5862 5861 5860 5859 5860 5859 5858 5857 5857 5856 5855 5855 5854
5881 5881 5882 5882 5882 5882 5882 5882 5882 5883 5883 5883 5883 5883 5883 5883 5883 5883 5883 5883 5883 5883 5883 5883 5883 5883 5883 5883 5883 5883 5883 5883 5882 5882 5882 5882 5881 5881 5881 5881 5881 5880 5880 5879 5879 5879 5878 5878 5878 5877 5876 5875 5875 5874 5873 5873 5872 5872 5871 5870 5869 5869 5869 5868 5867 5866 5865 5864 5864 5863 5863 5863 5862 5862 5861 5860 5860 5858 5857 5858 5858 5856 5855 5855 5855 5854 5853 5852
5879 5879 5879 5879 5879 5880 5880 5880 5880 5880 5880 5880 5880 5881 5881 5881 5881 5881 5881 5881 5881 5881 5881 5881 5881 5881 5881 5881 5881 5881 5881 5880 5879 5879 5879 5879 5878 5878 5878 5878 5878 5877 5877 5876 5876 5876 5875 5875 5875 5874 5874 5873 5872 5872 5870 5870 5869 5870 5869 5868 5867 5866 5867 5866 5864 5864 5863 5862 5861 5861 5861 5860 5860 5860 5859 5858 5858 5856 5855 5856 5856 5855 5854 5853 5853 5852 5851 5850
5876 5876 5876 5877 5877 5877 5877 5877 5877 5877 5878 5877 5878 5878 5878 5878 5878 5878 5878 5878 5878 5878 5878 5878 5878 5878 5878 5878 5878 5878 5878 5877 5876 5876 5876 5876 5875 5875 5875 5875 5875 5874 5874 5873 5873 5873 5872 5872 5871 5871 5871 5869 5869 5869 5868 5867 5866 5867 5866 5865 5864 5864 5864 5863 5862 5862 5861 5860 5859 5858 5858 5858 5857 5857 5857 5856 5855 5853 5852 5854 5854 5853 5852 5852 5851 5850 5849 5848
5872 5873 5873 5873 5874 5874 5874 5874 5874 5874 5874 5874 5875 5874 5874 5875 5875 5875 5875 5875 5875 5875 5875 5875 5875 5875 5875 5875 5875 5876 5876 5873 5873 5874 5873 5873 5872 5872 5872 5872 5871 5871 5870 5870 5870 5869 5869 5868 5867 5866 5867 5866 5865 5865 5864 5864 5863 5863 5863 5861 5861 5861 5860 5860 5859 5859 5858 5857 5855 5854 5856 5855 5854 5854 5855 5854 5851 5849 5850 5850 5851 5850 5850 5850 5850 5849 5848 5847
5869 5869 5870 5870 5870 5871 5871 5871 5871 5871 5871 5871 5871 5871 5871 5871 5871 5871 5871 5871 5871 5871 5872 5871 5872 5872 5872 5872 5872 5873 5873 5870 5869 5870 5871 5870 5869 5868 5868 5868 5868 5868 5867 5867 5866 5866 5865 5864 5863 5862 5863 5862 5861 5861 5860 5860 5860 5859 5859 5858 5858 5857 5856 5856 5856 5855 5854 5853 5851 5851 5852 5852 5850 5850 5853 5851 5847 5846 5847 5847 5847 5846 5847 5846 5846 5846 5845 5844
5865 5866 5866 5867 5867 5867 5867 5867 5867 5868 5868 5868 5868 5868 5868 5868 5868 5868 5868 5868 5868 5868 5868 5868 5868 5868 5868 5868 5869 5871 5869 5867 5866 5866 5867 5867 5866 5865 5865 5865 5865 5865 5864 5864 5863 5862 5862 5860 5859 5859 5858 5858 5858 5857 5855 5855 5856 5855 5854 5855 5855 5853 5852 5852 5852 5851 5849 5849 5849 5847 5848 5848 5846 5847 5850 5848 5843 5843 5843 5844 5843 5843 5843 5842 5842 5842 5841 5841
5862 5862 5862 5863 5863 5863 5864 5864 5864 5864 5864 5864 5864 5864 5864 5864 5864 5864 5864 5864 5864 5864 5864 5864 5864 5864 5864 5864 5866 5868 5865 5863 5863 5863 5863 5863 5862 5862 5862 5862 5862 5862 5861 5860 5860 5859 5858 5857 5856 5855 5854 5854 5854 5854 5851 5851 5851 5850 5849 5850 5850 5849 5849 5849 5848 5847 5844 5845 5846 5843 5843 5845 5843 5843 5847 5844 5840 5840 5840 5839 5839 5839 5839 5838 5838 5838 5837 5837
5859 5859 5859 5859 5860 5860 5860 5860 5861 5861 5861 5861 5861 5860 5860 5861 5861 5861 5861 5861 5861 5861 5860 5860 5860 5860 5860 5861 5863 5864 5861 5860 5860 5859 5859 5858 5858 5858 5858 5858 5858 5858 5857 5857 5856 5855 5854 5853 5852 5851 5850 5850 5850 5850 5848 5847 5846 5846 5845 5845 5846 5844 5844 5846 5843 5841 5840 5840 5841 5838 5838 5841 5840 5840 5842 5839 5836 5837 5837 5836 5834 5834 5835 5834 5834 5834 5833 5833
5855 5855 5855 5856 5856 5856 5856 5856 5857 5857 5857 5857 5857 5857 5857 5857 5857 5857 5857 5857 5858 5857 5857 5857 5856 5856 5856 5858 5860 5859 5857 5857 5856 5856 5855 5854 5854 5855 5855 5855 5855 5854 5854 5853 5853 5852 5850 5848 5848 5847 5845 5845 5846 5846 5844 5844 5842 5842 5840 5838 5842 5840 5840 5843 5839 5835 5836 5836 5836 5832 5831 5836 5838 5836 5836 5835 5832 5832 5833 5833 5830 5829 5830 5829 5829 5828 5828 5828
5852 5852 5852 5852 5852 5852 5852 5853 5853 5853 5854 5854 5853 5853 5853 5854 5854 5854 5853 5853 5853 5854 5853 5853 5853 5852 5852 5855 5857 5855 5854 5854 5853 5852 5851 5850 5851 5851 5852 5852 5851 5851 5850 5850 5849 5848 5846 5844 5843 5842 5842 5841 5842 5841 5840 5840 5838 5838 5835 5833 5836 5835 5836 5840 5834 5831 5832 5830 5831 5827 5823 5830 5835 5832 5832 5830 5828 5827 5827 5829 5827 5826 5826 5825 5824 5823 5823 5823
5848 5848 5848 5848 5848 5848 5848 5849 5849 5849 5850 5850 5850 5849 5849 5850 5850 5850 5849 5849 5849 5849 5849 5849 5848 5848 5848 5852 5854 5852 5851 5850 5849 5848 5847 5847 5848 5848 5849 5848 5848 5847 5847 5846 5845 5844 5843 5841 5838 5837 5837 5837 5837 5837 5836 5836 5834 5834 5831 5829 5830 5827 5830 5836 5831 5829 5828 5825 5826 5822 5816 5823 5830 5829 5828 5825 5823 5823 5822 5824 5823 5823 5823 5821 5820 5819 5818 5818
5844 5845 5845 5844 5845 5845 5845 5845 5845 5845 5845 5845 5845 5845 5845 5845 5845 5846 5845 5845 5845 5845 5844 5844 5844 5843 5843 5848 5850 5848 5847 5847 5845 5844 5844 5844 5845 5846 5846 5845 5844 5844 5843 5842 5841 5840 5839 5837 5835 5833 5833 5833 5834 5833 5832 5831 5831 5830 5826 5825 5825 5820 5822 5829 5829 5827 5824 5820 5820 5817 5811 5816 5825 5826 5824 5821 5819 5819 5818 5819 5818 5818 5819 5817 5816 5814 5813 5813
5840 5840 5840 5841 5841 5841 5841 5841 5841 5841 5841 5841 5841 5840 5840 5840 5841 5841 5840 5841 5841 5841 5840 5839 5839 5838 5838 5844 5846 5844 5844 5843 5841 5841 5841 5841 5841 5842 5842 5841 5841 5841 5840 5838 5837 5836 5835 5833 5830 5829 5829 5830 5832 5829 5826 5825 5828 5828 5822 5819 5819 5817 5816 5821 5826 5824 5820 5816 5814 5812 5807 5811 5819 5820 5818 5817 5816 5815 5814 5815 5814 5813 5813 5813 5811 5809 5808 5808
5836 5836 5836 5836 5836 5836 5836 5836 5836 5836 5836 5836 5836 5836 5835 5835 5836 5836 5836 5836 5836 5836 5835 5834 5835 5833 5833 5838 5840 5840 5840 5838 5837 5837 5837 5837 5838 5838 5838 5838 5837 5836 5835 5834 5833 5832 5831 5828 5825 5824 5825 5828 5830 5826 5821 5820 5823 5823 5817 5814 5814 5814 5813 5815 5820 5818 5816 5812 5809 5806 5803 5806 5813 5813 5812 5814 5812 5810 5810 5810 5810 5809 5808 5807 5807 5805 5804 5803
5831 5831 5831 5831 5831 5831 5831 5831 5831 5831 5831 5831 5831 5831 5830 5830 5830 5830 5831 5831 5831 5832 5830 5829 5830 5827 5830 5833 5833 5835 5836 5834 5834 5833 5833 5834 5834 5834 5834 5833 5833 5831 5830 5829 5829 5828 5825 5823 5820 5819 5822 5827 5827 5822 5816 5816 5818 5815 5813 5810 5808 5810 5809 5811 5814 5811 5809 5806 5803 5801 5798 5800 5805 5806 5807 5809 5808 5806 5806 5806 5806 5805 5804 5802 5801 5801 5800 5798
5826 5826 5826 5826 5826 5826 5826 5826 5826 5825 5825 5825 5825 5826 5825 5825 5824 5825 5825 5825 5826 5827 5825 5824 5824 5823 5825 5828 5828 5829 5830 5830 5830 5830 5831 5831 5830 5830 5829 5829 5828 5826 5825 5825 5824 5821 5819 5817 5813 5814 5821 5825 5823 5817 5813 5812 5812 5809 5809 5807 5804 5804 5804 5809 5810 5806 5803 5798 5795 5796 5793 5793 5797 5800 5802 5803 5803 5802 5802 5802 5801 5800 5800 5799 5797 5795 5794 5793
5820 5820 5821 5821 5821 5821 5821 5821 5820 5820 5820 5820 5820 5820 5820 5820 5819 5819 5819 5820 5821 5821 5820 5819 5819 5818 5820 5822 5823 5824 5825 5825 5825 5827 5827 5827 5826 5825 5825 5824 5822 5821 5821 5821 5817 5815 5814 5810 5808 5813 5820 5821 5817 5812 5809 5808 5806 5804 5804 5802 5801 5799 5799 5805 5807 5803 5799 5791 5788 5791 5788 5787 5792 5796 5798 5798 5798 5799 5799 5798 5796 5796 5796 5795 5793 5791 5790 5788
5815 5815 5815 5815 5815 5816 5816 5815 5815 5815 5815 5815 5814 5814 5814 5814 5813 5813 5813 5814 5815 5816 5816 5814 5812 5813 5816 5816 5817 5818 5819 5819 5822 5824 5823 5822 5822 5821 5821 5819 5816 5816 5817 5815 5811 5811 5809 5804 5806 5812 5816 5814 5810 5808 5807 5804 5802 5800 5799 5798 5797 5795 5796 5800 5801 5800 5796 5786 5783 5785 5781 5780 5786 5791 5793 5793 5792 5794 5796 5794 5793 5793 5792 5791 5789 5788 5786 5784
5809 5809 5809 5809 5810 5810 5810 5810 5810 5810 5810 5809 5809 5809 5809 5808 5807 5807 5806 5806 5809 5811 5810 5809 5808 5807 5809 5810 5811 5813 5813 5815 5819 5819 5818 5817 5817 5817 5816 5813 5811 5812 5811 5809 5808 5807 5801 5800 5806 5809 5808 5806 5805 5805 5803 5800 5797 5795 5795 5794 5790 5791 5793 5793 5795 5796 5790 5781 5778 5779 5775 5773 5779 5785 5788 5789 5788 5789 5790 5790 5791 5790 5788 5786 5785 5784 5783 5781
5803 5804 5804 5804 5804 5805 5805 5804 5804 5804 5804 5804 5804 5804 5803 5803 5802 5801 5800 5798 5802 5806 5804 5805 5805 5801 5802 5804 5806 5807 5808 5811 5813 5812 5812 5812 5812 5812 5809 5808 5807 5805 5804 5805 5806 5801 5794 5797 5803 5803 5800 5801 5800 5800 5798 5795 5793 5791 5791 5788 5784 5788 5788 5784 5787 5789 5783 5776 5774 5773 5767 5765 5771 5777 5782 5786 5784 5784 5785 5786 5787 5787 5785 5783 5780 5780 5779 5778
5797 5798 5798 5798 5799 5799 5799 5799 5798 5799 5799 5798 5798 5798 5798 5798 5797 5796 5795 5792 5792 5798 5801 5800 5798 5796 5799 5800 5799 5801 5804 5806 5806 5806 5807 5807 5806 5805 5803 5803 5800 5797 5800 5802 5800 5793 5790 5795 5797 5795 5795 5796 5795 5794 5793 5790 5789 5788 5787 5785 5782 5784 5783 5778 5779 5779 5774 5770 5770 5769 5758 5754 5765 5770 5775 5782 5780 5779 5781 5781 5783 5783 5780 5778 5777 5777 5775 5774
5791 5792 5792 5793 5793 5793 5794 5793 5793 5793 5793 5793 5792 5793 5792 5792 5792 5791 5790 5787 5784 5789 5795 5794 5791 5792 5795 5795 5795 5798 5798 5798 5799 5801 5802 5801 5801 5799 5797 5796 5792 5793 5796 5797 5793 5786 5786 5793 5793 5789 5789 5790 5789 5788 5787 5786 5785 5783 5782 5782 5781 5780 5778 5775 5774 5771 5766 5761 5764 5765 5751 5743 5755 5763 5768 5775 5775 5775 5777 5776 5778 5779 5776 5774 5773 5773 5772 5771
5785 5786 5786 5787 5786 5787 5788 5787 5788 5788 5787 5788 5787 5787 5787 5786 5787 5785 5785 5782 5777 5780 5785 5785 5785 5788 5791 5792 5793 5793 5791 5792 5794 5796 5795 5794 5794 5792 5790 5788 5788 5789 5790 5790 5786 5779 5782 5789 5788 5785 5784 5783 5781 5780 5783 5783 5780 5776 5775 5778 5779 5775 5774 5772 5770 5767 5761 5756 5756 5756 5748 5739 5743 5752 5761 5766 5767 5770 5772 5772 5773 5774 5772 5770 5768 5767 5767 5767
5779 5779 5780 5781 5781 5781 5781 5781 5782 5782 5782 5782 5781 5781 5781 5780 5781 5780 5780 5776 5770 5772 5775 5777 5780 5784 5786 5788 5789 5788 5786 5788 5789 5788 5788 5787 5787 5786 5784 5783 5783 5784 5783 5782 5778 5774 5779 5782 5780 5779 5779 5776 5775 5776 5779 5778 5773 5770 5771 5772 5771 5770 5769 5768 5766 5763 5758 5755 5750 5745 5744 5739 5734 5742 5753 5756 5757 5762 5766 5768 5769 5769 5768 5767 5765 5763 5761 5761
5772 5773 5774 5775 5775 5775 5775 5775 5775 5776 5776 5775 5776 5775 5774 5775 5776 5776 5776 5770 5762 5763 5768 5772 5776 5777 5778 5780 5782 5783 5782 5783 5782 5781 5782 5781 5780 5779 5778 5778 5778 5777 5777 5774 5771 5772 5775 5774 5773 5772 5771 5770 5771 5773 5773 5770 5767 5766 5766 5764 5764 5764 5763 5762 5761 5758 5755 5752 5745 5739 5742 5740 5730 5734 5743 5743 5745 5752 5759 5763 5764 5763 5763 5762 5762 5760 5757 5756
5765 5766 5767 5768 5769 5769 5769 5769 5769 5769 5769 5769 5769 5769 5769 5770 5770 5771 5771 5762 5754 5757 5764 5769 5770 5769 5770 5771 5772 5774 5775 5776 5776 5775 5776 5775 5774 5773 5772 5772 5771 5770 5770 5767 5766 5768 5769 5768 5766 5765 5763 5765 5767 5766 5765 5764 5762 5761 5761 5759 5758 5757 5756 5757 5754 5753 5751 5745 5738 5737 5742 5742 5731 5727 5732 5732 5735 5743 5749 5755 5756 5756 5757 5758 5759 5757 5753 5751
5758 5759 5760 5762 5763 5762 5763 5763 5762 5762 5763 5763 5763 5763 5764 5764 5764 5765 5761 5753 5752 5757 5761 5762 5762 5762 5764 5764 5763 5764 5765 5767 5769 5769 5769 5769 5768 5767 5766 5765 5764 5763 5763 5761 5760 5763 5764 5762 5760 5759 5759 5760 5760 5759 5758 5757 5756 5756 5756 5754 5752 5751 5749 5749 5746 5746 5744 5736 5736 5738 5740 5743 5731 5719 5722 5725 5729 5734 5739 5744 5747 5747 5749 5752 5754 5752 5749 5747
5752 5752 5754 5756 5756 5756 5758 5757 5755 5754 5756 5756 5757 5757 5757 5757 5758 5756 5750 5749 5753 5755 5755 5754 5754 5756 5757 5756 5756 5756 5757 5758 5760 5761 5761 5762 5762 5761 5760 5759 5758 5756 5756 5755 5755 5757 5757 5754 5754 5755 5755 5754 5753 5753 5752 5752 5751 5751 5750 5747 5746 5745 5742 5740 5738 5739 5736 5730 5734 5738 5738 5739 5727 5714 5717 5721 5722 5726 5729 5733 5737 5737 5739 5745 5748 5746 5744 5742
5745 5745 5747 5749 5749 5750 5752 5752 5749 5749 5749 5749 5749 5750 5750 5749 5749 5747 5746 5749 5749 5747 5750 5750 5748 5749 5749 5749 5750 5750 5749 5750 5751 5752 5753 5754 5755 5755 5755 5753 5753 5750 5749 5750 5750 5749 5749 5749 5749 5747 5748 5749 5748 5748 5746 5746 5747 5745 5743 5741 5739 5737 5734 5732 5731 5731 5730 5729 5731 5733 5733 5728 5717 5713 5719 5720 5719 5721 5722 5723 5728 5729 5728 5734 5742 5740 5739 5738
5738 5739 5740 5741 5743 5743 5745 5745 5745 5745 5743 5742 5741 5741 5741 5739 5740 5742 5743 5745 5743 5742 5745 5744 5741 5742 5742 5742 5743 5742 5742 5743 5743 5743 5744 5745 5746 5748 5748 5747 5747 5745 5743 5744 5743 5741 5741 5744 5744 5741 5742 5744 5742 5741 5741 5741 5741 5739 5737 5736 5734 5731 5726 5723 5726 5725 5724 5726 5727 5727 5724 5716 5710 5712 5716 5717 5719 5719 5718 5717 5719 5722 5718 5721 5731 5734 5733 5733
5731 5731 5733 5734 5735 5736 5738 5738 5739 5740 5738 5736 5734 5732 5731 5730 5734 5738 5736 5737 5739 5738 5739 5737 5736 5735 5734 5735 5736 5735 5735 5735 5736 5736 5735 5736 5736 5738 5741 5741 5740 5739 5737 5737 5736 5735 5734 5737 5740 5737 5736 5738 5735 5734 5735 5734 5734 5732 5732 5730 5727 5726 5722 5718 5721 5720 5717 5718 5719 5717 5712 5708 5709 5711 5711 5712 5713 5713 5715 5715 5714 5713 5711 5710 5717 5724 5727 5725
5723 5724 5725 5727 5729 5729 5730 5730 5731 5732 5731 5729 5725 5722 5723 5725 5730 5731 5728 5729 5731 5730 5731 5731 5730 5729 5727 5728 5729 5730 5730 5726 5727 5728 5726 5727 5728 5729 5732 5733 5733 5733 5730 5728 5729 5729 5726 5729 5735 5731 5728 5732 5729 5728 5729 5726 5726 5727 5725 5721 5719 5721 5719 5714 5714 5714 5711 5708 5709 5707 5701 5702 5706 5707 5707 5707 5706 5707 5708 5709 5707 5704 5703 5704 5707 5714 5717 5717
5716 5717 5718 5721 5723 5723 5722 5722 5723 5723 5722 5720 5713 5711 5717 5723 5724 5724 5722 5723 5722 5721 5722 5722 5723 5722 5720 5721 5722 5723 5723 5719 5719 5719 5717 5718 5719 5721 5723 5723 5725 5725 5722 5721 5720 5720 5717 5719 5728 5724 5720 5724 5722 5722 5722 5718 5718 5719 5716 5714 5715 5715 5712 5707 5703 5706 5706 5698 5699 5701 5695 5695 5700 5699 5701 5702 5702 5704 5702 5701 5700 5695 5694 5697 5702 5707 5709 5709
5707 5709 5712 5715 5716 5715 5714 5715 5715 5713 5712 5708 5701 5703 5713 5717 5717 5717 5716 5716 5714 5713 5713 5713 5717 5717 5712 5712 5714 5716 5714 5711 5711 5710 5709 5709 5709 5713 5715 5714 5715 5715 5714 5714 5712 5712 5708 5706 5716 5719 5714 5715 5715 5713 5712 5711 5709 5707 5708 5711 5711 5706 5703 5699 5692 5694 5696 5688 5689 5696 5692 5690 5694 5693 5693 5695 5696 5697 5695 5695 5693 5688 5688 5689 5693 5700 5702 5702
5699 5701 5704 5707 5708 5706 5706 5706 5705 5703 5700 5696 5692 5698 5707 5709 5711 5711 5710 5709 5707 5706 5705 5703 5707 5709 5706 5705 5707 5709 5706 5702 5703 5702 5700 5700 5700 5706 5709 5705 5705 5704 5706 5705 5701 5702 5701 5695 5703 5712 5708 5706 5708 5706 5703 5702 5700 5697 5700 5704 5702 5697 5695 5692 5685 5682 5684 5679 5678 5686 5688 5686 5689 5690 5691 5690 5690 5688 5686 5687 5685 5682 5684 5684 5684 5689 5693 5695
5690 5691 5695 5699 5699 5696 5697 5696 5695 5693 5688 5685 5686 5692 5698 5701 5703 5703 5702 5701 5700 5698 5696 5696 5698 5699 5698 5699 5700 5701 5699 5696 5694 5693 5692 5691 5692 5699 5702 5698 5696 5695 5696 5695 5690 5691 5692 5685 5687 5699 5700 5696 5698 5699 5695 5695 5693 5690 5691 5692 5691 5691 5687 5682 5677 5674 5675 5670 5666 5671 5675 5679 5687 5690 5689 5687 5685 5682 5679 5678 5678 5676 5678 5679 5678 5677 5680 5685
5680 5680 5684 5691 5688 5684 5686 5684 5683 5682 5677 5677 5681 5685 5688 5690 5692 5695 5694 5693 5691 5689 5687 5689 5691 5688 5689 5691 5691 5692 5692 5689 5687 5686 5685 5684 5685 5692 5694 5690 5689 5687 5685 5684 5680 5680 5680 5673 5672 5682 5687 5684 5686 5690 5689 5688 5686 5682 5680 5681 5682 5682 5677 5671 5667 5667 5668 5662 5656 5656 5655 5667 5687 5689 5684 5683 5679 5675 5672 5671 5672 5673 5671 5672 5673 5670 5667 5670
5670 5669 5675 5682 5675 5672 5676 5671 5669 5672 5669 5669 5674 5676 5677 5678 5682 5686 5685 5683 5682 5681 5679 5679 5680 5680 5680 5682 5684 5685 5682 5679 5679 5678 5677 5679 5682 5683 5683 5682 5682 5681 5677 5674 5672 5670 5667 5662 5660 5664 5668 5670 5674 5678 5678 5677 5676 5673 5671 5672 5673 5673 5668 5660 5654 5657 5662 5653 5648 5645 5635 5648 5679 5686 5679 5678 5673 5667 5667 5666 5666 5667 5665 5663 5665 5665 5659 5656
5661 5660 5666 5670 5664 5661 5664 5658 5658 5661 5659 5661 5666 5666 5666 5667 5672 5676 5675 5674 5671 5670 5670 5669 5670 5672 5671 5672 5675 5676 5673 5668 5669 5670 5669 5672 5676 5674 5674 5675 5674 5673 5671 5669 5666 5664 5659 5654 5650 5649 5652 5656 5659 5663 5663 5663 5664 5662 5659 5661 5664 5662 5659 5653 5645 5648 5652 5642 5638 5637 5621 5629 5667 5683 5675 5671 5665 5660 5660 5660 5658 5658 5657 5656 5656 5656 5654 5648
5651 5652 5655 5658 5655 5653 5651 5646 5648 5651 5650 5653 5657 5656 5656 5656 5660 5664 5666 5665 5661 5659 5659 5659 5660 5662 5662 5663 5664 5664 5663 5659 5658 5662 5661 5660 5664 5667 5667 5667 5667 5665 5663 5661 5659 5656 5652 5646 5642 5639 5640 5643 5645 5649 5650 5651 5651 5648 5646 5650 5652 5650 5650 5646 5639 5639 5637 5629 5630 5627 5611 5618 5653 5673 5668 5662 5658 5653 5652 5652 5651 5650 5651 5650 5647 5646 5646 5644
5642 5642 5644 5647 5646 5643 5638 5637 5640 5640 5641 5645 5646 5645 5646 5645 5647 5654 5657 5657 5653 5649 5648 5649 5650 5650 5651 5653 5651 5651 5654 5649 5645 5651 5653 5649 5653 5660 5659 5658 5659 5658 5654 5653 5650 5648 5645 5639 5635 5632 5631 5632 5634 5638 5640 5642 5641 5637 5637 5640 5640 5640 5640 5635 5632 5629 5620 5618 5624 5617 5603 5613 5641 5655 5655 5653 5651 5647 5646 5645 5644 5644 5644 5641 5638 5637 5638 5637
5630 5631 5634 5635 5634 5631 5629 5631 5633 5629 5630 5634 5633 5634 5636 5634 5637 5645 5647 5645 5644 5641 5638 5638 5640 5640 5639 5640 5639 5640 5643 5640 5635 5636 5640 5640 5643 5650 5651 5650 5650 5648 5646 5645 5642 5638 5634 5631 5629 5625 5621 5620 5623 5627 5633 5635 5631 5627 5628 5630 5630 5630 5630 5625 5622 5617 5608 5611 5616 5606 5598 5610 5629 5639 5641 5643 5644 5641 5641 5640 5638 5637 5635 5630 5628 5629 5630 5630
5618 5619 5623 5623 5619 5619 5620 5624 5625 5620 5619 5622 5620 5621 5626 5625 5629 5635 5634 5632 5635 5634 5629 5625 5627 5629 5629 5629 5629 5628 5630 5631 5627 5623 5624 5628 5632 5638 5642 5641 5639 5638 5639 5638 5633 5628 5620 5616 5620 5617 5610 5610 5612 5616 5625 5625 5619 5617 5619 5621 5623 5622 5621 5618 5610 5604 5604 5605 5600 5598 5601 5605 5614 5626 5631 5633 5635 5634 5634 5635 5632 5628 5625 5622 5623 5622 5622 5623
5607 5609 5612 5611 5606 5606 5610 5614 5616 5612 5610 5610 5606 5608 5616 5618 5619 5621 5622 5622 5626 5625 5618 5613 5615 5618 5619 5621 5619 5616 5617 5619 5616 5612 5612 5615 5620 5626 5629 5630 5629 5630 5634 5631 5625 5619 5606 5599 5607 5608 5600 5602 5605 5607 5614 5613 5606 5607 5610 5611 5615 5615 5613 5608 5598 5596 5601 5594 5583 5593 5603 5596 5599 5614 5621 5623 5626 5625 5626 5627 5623 5620 5618 5617 5618 5617 5615 5616
5596 5598 5601 5598 5594 5597 5600 5603 5604 5602 5600 5599 5595 5597 5604 5607 5608 5608 5610 5611 5613 5613 5608 5603 5605 5609 5610 5612 5609 5603 5604 5605 5603 5604 5604 5603 5606 5609 5612 5616 5619 5622 5625 5620 5614 5611 5597 5586 5594 5597 5590 5594 5598 5598 5603 5602 5596 5597 5598 5600 5605 5606 5603 5597 5591 5592 5594 5582 5575 5589 5595 5587 5589 5601 5608 5613 5618 5617 5616 5614 5612 5612 5612 5612 5612 5611 5610 5610
5585 5587 5589 5586 5584 5588 5592 5591 5591 5590 5589 5588 5585 5586 5591 5594 5595 5597 5598 5598 5598 5600 5599 5595 5596 5599 5599 5600 5596 5591 5593 5594 5592 5595 5596 5592 5591 5593 5594 5599 5606 5611 5611 5604 5602 5602 5589 5578 5584 5587 5580 5582 5587 5588 5591 5591 5587 5586 5586 5588 5591 5591 5589 5586 5583 5585 5584 5573 5571 5579 5578 5575 5582 5589 5594 5601 5604 5602 5601 5600 5601 5603 5604 5605 5605 5602 5602 5601
5574 5574 5577 5576 5574 5579 5582 5581 5578 5576 5577 5578 5575 5577 5581 5580 5581 5584 5587 5587 5585 5586 5590 5586 5584 5586 5586 5586 5585 5581 5583 5585 5581 5581 5584 5581 5581 5582 5580 5581 5589 5596 5597 5592 5591 5590 5581 5574 5578 5579 5568 5564 5573 5578 5578 5578 5576 5574 5575 5577 5578 5576 5575 5575 5574 5575 5572 5565 5565 5566 5559 5559 5574 5582 5582 5584 5585 5584 5585 5587 5590 5591 5592 5594 5594 5592 5590 5587
5564 5563 5564 5565 5565 5569 5571 5570 5568 5564 5564 5570 5569 5568 5568 5567 5567 5570 5573 5577 5577 5575 5577 5575 5571 5573 5574 5575 5574 5571 5571 5573 5570 5570 5572 5571 5572 5573 5572 5570 5573 5578 5581 5581 5579 5577 5572 5567 5570 5570 5556 5549 5561 5566 5562 5565 5562 5555 5558 5566 5570 5568 5565 5564 5564 5563 5559 5554 5553 5552 5545 5547 5563 5571 5567 5565 5568 5569 5570 5573 5576 5578 5580 5582 5580 5577 5575 5571
5553 5552 5553 5553 5554 5560 5561 5558 5556 5553 5555 5562 5561 5555 5553 5554 5557 5560 5560 5564 5568 5565 5563 5561 5559 5560 5562 5563 5562 5561 5560 5561 5561 5561 5562 5562 5562 5563 5563 5563 5564 5565 5565 5567 5566 5564 5563 5558 5559 5560 5547 5540 5550 5553 5550 5552 5543 5533 5544 5560 5563 5560 5556 5553 5552 5551 5551 5547 5540 5536 5536 5541 5550 5552 5549 5550 5554 5555 5556 5560 5562 5563 5564 5566 5564 5561 5560 5559